Regional Weather Roundup
Issued by NWS

Home | Current Version | Previous Version | Text Only | Print | Product List | Glossary On
Versions: 1 2 3 4 5 6 7 8 9 10 11 12 13 14 15 16 17 18 19 20 21 22 23 24 25 26 27 28 29 30 31 32 33 34 35 36 37 38 39 40 41 42 43 44 45 46 47 48 49 50
000
ASUS44 KFWD 031915
RWRTX
NORTH TEXAS HOURLY WEATHER ROUNDUP
NATIONAL WEATHER SERVICE FORT WORTH TX
200 PM CDT FRI JUL 03 2015

NOTE: "FAIR" INDICATES FEW OR NO CLOUDS BELOW 12,000 FEET WITH NO
SIGNIFICANT WEATHER AND/OR OBSTRUCTIONS TO VISIBILITY.

TXZ118-119-032000-
DALLAS/FORT WORTH METROPLEX

CITY           SKY/WX    TMP DP  RH WIND       PRES   REMARKS
DFW AIRPORT    PTSUNNY   89  68  49 SW10      29.95F HX  93
DALLAS LOVE    CLOUDY    89  69  51 SW9       29.95F HX  93
FTW MEACHAM    PTSUNNY   90  70  51 SW12G24   29.95F HX  95
DAL-EXECUTIVE  CLOUDY    89  71  55 W9        29.96F HX  95
FTW-ALLIANCE   PTSUNNY   90  70  51 W13G18    29.95F HX  95
FTW-NAS-JRB    PTSUNNY   90  70  51 SW15      29.96F HX  95
FTW-SPINKS     SUNNY     88  70  55 SW8       29.98F HX  92
ARLINGTON      PTSUNNY   91  68  46 SW14      29.96F HX  95
GRAND PRAIRIE  SUNNY     90  73  58 SW12      29.98F HX  98
ADDISON        PTSUNNY   88  70  55 SW7       29.98  HX  92
MESQUITE       SUNNY     88  72  58 SW12      29.97F HX  94
LANCASTER      CLOUDY    88  69  53 SW9       29.97F HX  92
$$

TXZ091>094-102>105-117-120-121-131>134-032000-
NORTH CENTRAL TEXAS

CITY           SKY/WX    TMP DP  RH WIND       PRES   REMARKS
SHRMAN/DENISON CLOUDY    80  75  85 SW14      29.97F
GAINESVILLE    LGT RAIN  78  75  91 SE6       29.98F
BOWIE          PTSUNNY   79  59  50 S12G18    29.97F
BRIDGEPORT     MOSUNNY   88  69  53 W10G16    29.98F HX  91
DECATUR        MOSUNNY   85  66  52 W9        29.98F
DENTON         PTSUNNY   87  69  54 SW14      29.96F HX  91
MCKINNEY       CLOUDY    74  72  93 E3        29.98F
GREENVILLE     CLOUDY    79  72  78 NW10G20   29.99R THUNDER
ROCKWALL       LGT RAIN  84  73  69 SW7       29.96F
TERRELL        CLOUDY    87  73  62 SW9       29.97F HX  94
WAXAHACHIE     PTSUNNY   87  71  57 SW12G17   29.98F HX  93
CLEBURNE       PTSUNNY   90  72  55 SW8G17    29.99F HX  96
GRANBURY       LGT RAIN  88  69  53 S7        29.98F HX  92
$$

TXZ083>090-098>101-113>116-127>130-139>142-154-155-032000-
WESTERN NORTH TEXAS

CITY           SKY/WX    TMP DP  RH WIND       PRES   REMARKS
WICHITA FALLS  PTSUNNY   91  72  53 S16       29.93F HX  98
WF-KICKAPOO    MOSUNNY   90  69  50 SW10G18   29.96F HX  94
VERNON         MOSUNNY   97  60  28 NE5       29.95F HX  97
ABILENE        MOSUNNY   89  64  43 SW12      30.01F HX  90
ABILENE-DYESS  CLOUDY    87  67  51 W7        30.00F HX  90
BRECKENRIDGE   CLOUDY    89  63  41 W13       29.98F HX  90
GRAHAM         PTSUNNY   88  70  55 S8        29.97F HX  92
MINERAL WELLS  PTSUNNY   89  70  53 SW13      29.96F HX  94
STEPHENVILLE   CLOUDY    86  67  53 SW8       30.02F
COMANCHE       CLOUDY    85  69  58 SW6       30.02S
BROWNWOOD      PTSUNNY   88  64  45 SW13      30.01S
COLEMAN        MOSUNNY   89  66  47 SW7       30.01F HX  91
BRADY          MOSUNNY   88  63  42 N7        30.02S
$$

TXZ143>147-156>162-174-175-032000-
CENTRAL TEXAS

CITY           SKY/WX    TMP DP  RH WIND       PRES   REMARKS
WACO           CLOUDY    90  68  48 S8        29.98F HX  94
WACO-TSTC      SUNNY     88  70  55 SW8       29.98F HX  92
WACO-MCGREGOR  PTSUNNY   90  70  51 S10       29.99S HX  95
HILLSBORO      PTSUNNY   88  69  54 S14       29.98F HX  92
CORSICANA      PTSUNNY   90  72  55 SW13      29.99F HX  97
MEXIA          PTSUNNY   86  72  62 SW12      29.98F HX  92
HEARNE         PTSUNNY   88  73  61 SE7       29.99F HAZE    HX  95
CAMERON        MOSUNNY   90  71  53 SW10      29.98F HX  96
TEMPLE         PTSUNNY   90  68  48 S12G20    29.98S HX  93
KILLEEN        PTSUNNY   88  67  50 S9        29.99F HX  91
KILLEEN-SKYLRK PTSUNNY   90  70  51 S12       29.99S HX  95
FORT HOOD      PTSUNNY   89  68  49 S13       29.98F HX  92
GATESVILLE     CLOUDY    90  66  45 SW8       30.01S HX  92
HAMILTON       CLOUDY    86  66  50 SW9       30.02F
LAMPASAS       PTSUNNY   91  70  49 S10G16    29.99F HX  96
$$

TXZ095>097-106>112-122>126-135>138-148>153-164>167-032000-
EAST TEXAS

CITY           SKY/WX    TMP DP  RH WIND       PRES   REMARKS
PARIS          CLOUDY    79  70  73 SW9       29.97F
SULPHUR SPRNGS RAIN      80  77  91 CALM      30.00F
MOUNT PLEASANT CLOUDY    81  74  79 CALM      29.99F
GILMER         CLOUDY    83  73  70 SW7       29.98F
MINEOLA        CLOUDY    88  73  62 SW7       29.99F HX  96
TYLER          CLOUDY    86  73  65 SW8       29.98F HX  93
LONGVIEW       CLOUDY    88  75  65 W8        29.98F HX  97
MARSHALL       CLOUDY    89  77  69 SW5       30.00F HX 101
ATHENS         PTSUNNY   86  72  62 SW7       29.97F HX  92
PALESTINE      PTSUNNY   89  72  56 S9        30.00S HX  96
JACKSONVILLE   CLOUDY    87  72  61 S7        30.02F HX  94
HENDERSON      CLOUDY    85  75  72 SW5       30.00F HX  92
CENTER         FAIR      86  73  65 SW7       29.99S HX  93
NACOGDOCHES    CLOUDY    88  73  62 SW7       29.99F HX  96
LUFKIN         PTSUNNY   91  73  55 SW6       29.99F HX  99
$$

SUPPLEMENTAL OBSERVATIONS (CENTRAL)

CITY           SKY/WX    TMP DP  RH WIND       PRES   REMARKS
LAKE TEXOMA      N/A     79  72  78 SW10        N/A
CADDO GRASSLND   N/A     81  75  83 SW8         N/A
PAT MAYSE LAKE   N/A     79  75  89 S9          N/A
GREENVILLE       N/A     73  70  88 W10         N/A
CEDAR HILL       N/A     90  70  51 SW6         N/A  HX  95
ATHENS           N/A     90  72  55 W5          N/A  HX  96
LAKE LIMESTONE   N/A     90  72  55 SW8         N/A  HX  96
MCGREGOR         N/A     90  68  48 S8          N/A  HX  93
TEMPLE           N/A     93  68  43 S8          N/A  HX  97
$$

SUPPLEMENTAL OBSERVATIONS (WEST)

CITY           SKY/WX    TMP DP  RH WIND       PRES   REMARKS
POSSUM KINGDOM   N/A     90  70  51 SW12        N/A  HX  95
LBJ GRASSLAND    N/A     86  70  58 SW6         N/A  HX  90
GRANBURY         N/A     88  68  51 SW8G17      N/A  HX  91
COMANCHE         N/A     86  66  51 SW6G17      N/A
HAMBY            N/A     90  63  40 SW13G22     N/A  HX  90
IVIE RESERVOIR   N/A     91  63  38 S8G17       N/A  HX  92
COLORADO BEND    N/A     90  61  37 W9G17       N/A
$$

SUPPLEMENTAL OBSERVATIONS (EAST)

CITY           SKY/WX    TMP DP  RH WIND       PRES   REMARKS
TEXARKANA        N/A     79  73  83 SW3G16      N/A
LINDEN           N/A     82  75  78 W3          N/A
CADDO LAKE       N/A     84  73  70 W3          N/A  HX  91
LUFKIN           N/A     91  73  55 MISG        N/A  HX 100
N SABINE NF      N/A     91  73  55 MISG        N/A  HX 100
$$

SUPPLEMENTAL OBSERVATIONS ARE A COLLECTION OF AUTOMATED INSTRUMENTS
THAT ARE MAINTAINED BY A VARIETY OF FEDERAL AND STATE AGENCIES.
CERTAIN ELEMENTS...SUCH AS HUMIDITY VALUES AND SUSTAINED WIND
SPEEDS...MAY BE APPROXIMATED.




USA.gov is the U.S. government's official web portal to all federal, state and local government web resources and services.